Regional Weather Roundup
Issued by NWS

Home | Current Version | Previous Version | Text Only | Print | Product List | Glossary On
Versions: 1 2 3 4 5 6 7 8 9 10 11 12 13 14 15 16 17 18 19 20 21 22 23 24 25 26 27 28 29 30 31 32 33 34 35 36 37 38 39 40 41 42 43 44 45 46 47 48 49 50
000
ASUS43 KOAX 281110
RWRNE

WEATHER ROUNDUP FOR NEBRASKA
NATIONAL WEATHER SERVICE OMAHA NE
600 AM CDT MON JUL 28 2014

NOTES: SATELLITE DATA IS BEING USED TO AUGMENT CLOUD COVER ABOVE
       12000 FEET.
       "FAIR" INDICATES FEW OR NO CLOUDS BELOW 12,000 FEET WITH NO
       SIGNIFICANT WEATHER AND/OR OBSTRUCTIONS TO VISIBILITY.

  * THESE STATIONS DO NOT REPORT WEATHER SUCH AS RAIN...SNOW OR FOG.

NEZ001>004-019>022-054>056-281200-
NEBRASKA PANHANDLE

CITY           SKY/WX    TMP DP  RH WIND       PRES   REMARKS
SCOTTSBLUFF    CLEAR     61  49  64 E12       30.32S
ALLIANCE       CLEAR     53  48  83 E7        30.34S
CHADRON        CLEAR     55  50  83 N3        30.34S
KIMBALL        CLEAR     57  49  73 E5        30.34S
SIDNEY         CLEAR     59  48  67 SE8       30.34F
$$

NEZ057>060-069>072-079>082-281200-
SOUTHWEST NEBRASKA

CITY           SKY/WX    TMP DP  RH WIND       PRES   REMARKS
NORTH PLATTE   CLEAR     53  50  89 E3        30.33R
IMPERIAL       PTCLDY    57  50  77 E3        30.32S
LEXINGTON      CLEAR     55  54  95 CALM      30.32R
MCCOOK         PTCLDY    58  54  86 E3        30.31R
OGALLALA       CLEAR     54  50  86 E5        30.33R
$$

NEZ005>010-023>029-035>040-094-281200-
NORTH CENTRAL NEBRASKA

CITY           SKY/WX    TMP DP  RH WIND       PRES   REMARKS
VALENTINE      PTCLDY    50  48  93 CALM      30.34S
AINSWORTH      PTCLDY    52  52 100 CALM      30.34R
BROKEN BOW     CLEAR     53  51  93 CALM      30.33R
O`NEILL        CLEAR     53  50  90 W6        30.31R
ORD            CLEAR     52  51  97 W5        30.30R
THEDFORD       CLEAR     51  49  93 CALM      30.35S
$$

NEZ041-046>049-061>064-073>077-083>087-281200-
SOUTH CENTRAL NEBRASKA

CITY           SKY/WX    TMP DP  RH WIND       PRES   REMARKS
GRAND ISLAND   CLEAR     56  54  93 W5        30.30R
AURORA         CLEAR     57  57 100 NW3       30.28R
HASTINGS       CLEAR     57  53  86 N6        30.29R
HEBRON         CLEAR     58  54  85 N3        30.27R
HOLDREGE       PTCLDY    56  55  94 N3        30.30S
KEARNEY *      CLEAR     57  54  88 NW3       30.32R
YORK             N/A     55  55 100 NW7       30.28R
$$

NEZ011>018-030>034-042>045-281200-
NORTHEAST NEBRASKA

CITY           SKY/WX    TMP DP  RH WIND       PRES   REMARKS
NORFOLK        CLEAR     54  52  93 NW5       30.26R
ALBION         CLEAR     53  51  93 CALM      30.29R
BLAIR          CLEAR     59  54  85 NW8       30.22R
COLUMBUS *     CLEAR     55  50  82 NW5       30.26R
FREMONT        CLEAR     58  55  91 NW3       30.23F
WAYNE          CLEAR     56  54  95 NW3       30.26S
$$

NEZ050>053-065>068-078-088>093-281200-
SOUTHEAST NEBRASKA

CITY           SKY/WX    TMP DP  RH WIND       PRES   REMARKS
LINCOLN        CLEAR     61  54  77 NW7       30.25R
OMAHA EPPLEY   CLEAR     58  54  86 N6        30.22S
BEATRICE       CLEAR     55  54  95 N3        30.24R
NEBRASKA CITY  CLEAR     56  56 100 NW6       30.22S
PLATTSMOUTH    CLEAR     57  55  90 NW5       30.21S
$$

NEZ044-045-051>053-067-281200-
OMAHA AREA

CITY           SKY/WX    TMP DP  RH WIND       PRES   REMARKS
OMAHA EPPLEY   CLEAR     58  54  86 N6        30.22S
BLAIR          CLEAR     59  54  85 NW8       30.22R
FREMONT        CLEAR     58  55  91 NW3       30.23F
MILLARD        CLEAR     60  55  86 NW6       30.22R
OFFUTT AFB     CLEAR     60  59  94 N6        30.21R
PLATTSMOUTH    CLEAR     57  55  90 NW5       30.21S
WAHOO          FAIR      57  54  89 NW5       30.24R
$$



USA.gov is the U.S. government's official web portal to all federal, state and local government web resources and services.